[[{"header":{"parameterUnit":"m.s-1","parameterCategory":1,"la1":30.2991,"la2":30.254,"lo1":-89.0895,"lo2":-89.0444,"dy":0.0017,"dx":0.0017,"nx":28,"ny":28,"refTime":"2025-11-11T03:00:00:Z","depth":0,"parameterNumber":2,"parameterNumberName":"U-component_of_WINDS"},"data":[0,0,0,0,0,0,0,0,0,0,0,0,0,0,0,0,0,0,0,0,0,0,0,0,0,0,0,0,0,0,0,0,0,0,0,0,0,0,0,0,0,0,0,0,0,0,0,0,0,0,0,0,0,0,0,0,0,0,4.0291,4.0292,0,4.0371,4.0372,4.0373,4.0321,4.0318,4.0316,4.0314,4.0393,4.0397,4.0401,0,0,0,0,0,0,0,0,0,0,0,0,0,4.0089,4.0094,4.0291,4.0292,4.0293,4.0371,4.0372,4.0373,4.0321,4.0318,4.0315,4.0313,4.0391,4.0396,4.0402,0,0,0,0,0,0,0,0,0,0,0,0,0,4.0174,4.0095,4.0291,4.0277,4.0277,4.0371,4.0372,4.0373,4.0322,4.0318,4.0315,4.0311,4.039,4.0396,4.0402,4.0514,0,0,4.0422,4.0425,0,0,0,0,0,0,0,0,4.0169,4.0181,4.0278,4.0278,4.0278,4.0332,4.0329,4.042,4.0323,4.0305,4.0314,4.031,4.0375,4.0383,4.0405,4.0518,4.0521,4.0423,4.0427,4.0429,4.0431,0,0,0,0,0,0,0,4.0163,4.0178,4.0323,4.028,4.0279,4.0265,4.0273,4.0346,4.0359,4.0306,4.0302,4.0313,4.0375,4.0399,4.0407,4.0522,4.0423,4.0428,4.0432,4.0435,4.0723,4.0726,0,0,0,0,0,0,4.0159,4.0173,4.032,4.0325,4.0214,4.0271,4.028,4.0318,4.0358,4.0361,4.0316,4.031,4.039,4.0399,4.041,4.0537,4.0429,4.0435,4.0439,4.0719,4.0724,4.0728,0,0,0,0,0,0,4.0155,4.0173,4.0317,4.0248,4.0265,4.0279,4.0322,4.0322,4.0346,4.0365,4.0367,4.0339,4.0388,4.04,4.0487,4.054,4.0438,4.0444,4.0715,4.072,4.0726,4.0797,0,0,0,0,0,0,4.015,4.0172,4.0216,4.025,4.0269,4.0395,4.0325,4.0326,4.0358,4.0351,4.0388,4.039,4.0386,4.0478,4.0493,4.0547,4.0449,4.071,4.0717,4.0724,4.079,4.0805,4.0817,0,0,0,0,0,4.0143,4.0234,4.0218,4.0236,4.0325,4.0398,4.0409,4.0403,4.0363,4.0405,4.0417,4.0389,4.0532,4.0487,4.0504,4.056,4.0706,4.0715,4.0723,4.0784,4.0802,4.0817,0,0,0,0,0,0,4.0206,4.0238,4.0221,4.0327,4.036,4.0389,4.0443,4.0423,4.0468,4.046,4.0449,4.0458,4.0547,4.0563,4.0512,4.0667,4.0613,4.0625,4.0653,4.067,4.0683,4.0675,4.0455,0,0,0,0,0,4.0233,4.0291,4.0315,4.0406,4.0423,4.0431,4.0463,4.0454,4.0488,4.0502,4.052,4.0553,4.0604,4.0639,4.0688,4.0794,4.0797,4.084,4.0854,4.0865,4.0874,4.0925,4.0942,4.0756,4.0755,4.0755,0,0,4.0287,4.0312,4.035,4.0419,4.0444,4.0501,4.0443,4.0508,4.0549,4.0512,4.0593,4.0607,4.0643,4.0738,4.0781,4.0754,4.0927,4.0876,4.0884,4.0887,4.0935,4.0953,4.0969,4.0761,4.076,4.0759,0,0,4.0415,4.0443,4.0517,4.0543,4.0581,4.0585,4.0603,4.0635,4.0643,4.0725,4.0695,4.0745,4.0836,4.086,4.0885,4.1019,4.0992,4.1035,4.1104,4.1153,4.1168,4.1181,4.1223,4.1239,4.1045,4.1046,4.1046,0,4.0478,4.0565,4.0559,4.0624,4.0653,4.0622,4.0695,4.072,4.0773,4.0792,4.0762,4.0872,4.0895,4.0991,4.1023,4.1047,4.1063,4.1029,4.1167,4.118,4.1191,4.1231,4.1248,4.105,4.105,4.1049,4.1049,0,4.0637,4.0698,4.0754,4.0803,4.0839,4.0909,4.091,4.0947,4.0936,4.0942,4.1022,4.1048,4.1099,4.1123,4.1113,4.1217,4.1198,4.1169,4.1112,4.1214,4.1251,4.1267,4.1057,4.1055,4.1054,4.1052,0,0,4.0807,4.085,4.087,4.089,4.0928,4.0974,4.104,4.109,4.1119,4.1156,4.1208,4.1285,4.1255,4.1283,4.1276,4.132,4.1417,4.1283,4.1284,4.1302,4.1526,4.1545,4.1563,4.1402,4.1405,4.1407,4.1521,0,4.0933,4.1049,4.1043,4.115,4.1203,4.1172,4.1229,4.1258,4.1265,4.1309,4.1317,4.1368,4.1329,4.1344,4.1387,4.1396,4.1461,4.1388,4.1446,4.1448,4.1433,4.1584,4.1605,4.1712,4.1536,4.1539,4.1541,0,4.1095,4.1135,4.1247,4.1273,4.1294,4.1346,4.1388,4.1433,4.1462,4.1464,4.1494,4.1478,4.1542,4.1487,4.1572,4.1523,4.1546,4.1554,4.1558,4.1559,4.1497,4.1584,4.1747,4.176,4.1565,4.1563,4.1561,0,4.1199,4.1282,4.1358,4.1377,4.1411,4.1446,4.1462,4.1489,4.1517,4.1554,4.1572,4.1617,4.164,4.1673,4.1669,4.1631,4.1753,4.17,4.1752,4.1752,4.1776,4.1774,4.194,4.18,4.18,4.18,4.1799,0,4.1337,4.1406,4.1405,4.1452,4.1526,4.1518,4.1591,4.1603,4.1626,4.1672,4.165,4.1693,4.1687,4.1729,4.1727,4.1794,4.1806,4.1806,4.1804,4.1806,4.1805,4.1817,4.1808,4.1804,4.1803,4.1802,4.1802,0,4.1466,4.1469,4.1549,4.1573,4.1581,4.1634,4.1653,4.1696,4.17,4.1758,4.1772,4.1779,4.1827,4.1827,4.1883,4.1881,4.1962,4.1954,4.1951,4.1947,4.1998,4.1991,4.2174,4.2195,4.2047,4.2048,4.2049,0,4.1551,4.1602,4.1631,4.166,4.1677,4.1725,4.1753,4.1747,4.1777,4.1813,4.185,4.1896,4.1933,4.2011,4.202,4.2062,4.2051,4.2112,4.2057,4.2055,4.2045,4.204,4.2042,4.2121,4.2123,4.2124,4.2125,0,4.17,4.1698,4.174,4.1781,4.1815,4.1848,4.1878,4.1903,4.1899,4.1933,4.1982,4.2011,4.2066,4.2111,4.215,4.2164,4.2142,4.2143,4.2156,4.2156,4.215,4.2148,4.1975,4.2138,4.2137,4.2136,4.2135,4.2134,4.1805,4.1847,4.1873,4.1919,4.194,4.1968,4.2007,4.2016,4.2057,4.2101,4.2095,4.2148,4.2173,4.2223,4.224,4.228,4.2258,4.2279,4.2284,4.2288,4.229,4.2148,4.2288,4.2288,4.2288,4.2287,4.2287,0,4.1948,4.1962,4.2005,4.2046,4.2081,4.206,4.209,4.212,4.2168,4.2193,4.2228,4.2282,4.2325,4.2336,4.2376,4.2406,4.2396,4.2416,4.2411,4.2413,4.231,4.2292,4.2422,4.2422,4.2422,4.2422,4.2422,4.2422,4.2026,4.2094,4.2094,4.2171,4.2185,4.2236,4.2255,4.2279,4.2298,4.2359,4.2394,4.2401,4.242,4.2461,4.2497,4.2499,4.2513,4.2535,4.2533,4.2435,4.2421,4.2408,4.2391,4.2539,4.254,4.2632,4.2633,4.2633]},{"header":{"parameterUnit":"m.s-1","parameterCategory":1,"la1":30.2991,"la2":30.254,"lo1":-89.0895,"lo2":-89.0444,"dy":0.0017,"dx":0.0017,"nx":28,"ny":28,"refTime":"2025-11-11T03:00:00:Z","depth":0,"parameterNumber":3,"parameterNumberName":"V-component_of_WINDS"},"data":[0,0,0,0,0,0,0,0,0,0,0,0,0,0,0,0,0,0,0,0,0,0,0,0,0,0,0,0,0,0,0,0,0,0,0,0,0,0,0,0,0,0,0,0,0,0,0,0,0,0,0,0,0,0,0,0,0,0,3.7892,3.7893,0,3.7951,3.7952,3.7953,3.7882,3.7879,3.7877,3.7874,3.7935,3.7938,3.7943,0,0,0,0,0,0,0,0,0,0,0,0,0,3.7715,3.7718,3.7892,3.7893,3.7893,3.7951,3.7952,3.7953,3.7882,3.7879,3.7876,3.7873,3.7933,3.7938,3.7943,0,0,0,0,0,0,0,0,0,0,0,0,0,3.7785,3.7719,3.7892,3.7865,3.7863,3.7951,3.7952,3.7953,3.7883,3.7879,3.7875,3.7871,3.7932,3.7938,3.7944,3.806,0,0,3.7962,3.7965,0,0,0,0,0,0,0,0,3.7781,3.7791,3.7868,3.7867,3.7865,3.7905,3.7911,3.7989,3.7884,3.7876,3.7874,3.7869,3.7928,3.7934,3.7954,3.8063,3.8066,3.7963,3.7966,3.7969,3.7971,0,0,0,0,0,0,0,3.7776,3.7788,3.7915,3.787,3.7868,3.7849,3.7855,3.7926,3.7923,3.7876,3.7871,3.7879,3.7926,3.7948,3.7955,3.8066,3.7963,3.7968,3.7972,3.7974,3.8269,3.8273,0,0,0,0,0,0,3.7774,3.7785,3.7913,3.7917,3.7812,3.7856,3.7862,3.7896,3.7922,3.7922,3.7882,3.7875,3.794,3.7948,3.7957,3.8091,3.7969,3.7975,3.7978,3.8265,3.827,3.8274,0,0,0,0,0,0,3.7771,3.7787,3.7911,3.785,3.7864,3.7863,3.7902,3.79,3.7921,3.7927,3.7926,3.7905,3.7937,3.7948,3.8034,3.8092,3.7977,3.7983,3.826,3.8266,3.8272,3.8364,0,0,0,0,0,0,3.7766,3.7786,3.7831,3.7851,3.7868,3.7989,3.7906,3.7904,3.7932,3.7924,3.7948,3.7948,3.7935,3.8025,3.804,3.8099,3.7988,3.8254,3.8263,3.827,3.8355,3.8372,3.8387,0,0,0,0,0,3.776,3.7855,3.7834,3.785,3.7924,3.7992,3.8001,3.7984,3.7937,3.7982,3.7984,3.7948,3.8084,3.8034,3.8051,3.8112,3.8251,3.826,3.8269,3.8348,3.8369,3.8386,0,0,0,0,0,0,3.7843,3.7858,3.7834,3.7939,3.7965,3.798,3.8036,3.8007,3.8047,3.8037,3.8013,3.8019,3.811,3.812,3.8064,3.8224,3.8159,3.8173,3.8214,3.8233,3.8249,3.8244,3.7993,0,0,0,0,0,3.7874,3.7928,3.7938,3.8029,3.8043,3.8038,3.8067,3.805,3.8076,3.8087,3.8096,3.8122,3.817,3.8203,3.8248,3.8357,3.8359,3.8407,3.8422,3.8435,3.8446,3.85,3.852,3.8305,3.8305,3.8305,0,0,3.7938,3.7952,3.7988,3.8046,3.8064,3.812,3.8047,3.811,3.815,3.8096,3.8177,3.8185,3.8212,3.8309,3.8352,3.832,3.8506,3.8447,3.8457,3.8461,3.8512,3.8532,3.855,3.8312,3.831,3.8309,0,0,3.8081,3.8099,3.8175,3.8194,3.8222,3.8217,3.8235,3.8254,3.8257,3.8337,3.8297,3.8344,3.8429,3.8448,3.847,3.8617,3.8583,3.8632,3.8714,3.8767,3.8783,3.8798,3.8847,3.8866,3.8644,3.8644,3.8644,0,3.8157,3.8239,3.8218,3.8282,3.8307,3.826,3.8336,3.8355,3.8397,3.8414,3.8378,3.848,3.8496,3.8594,3.863,3.865,3.8668,3.8629,3.8783,3.8797,3.8811,3.8857,3.8876,3.8649,3.8649,3.8648,3.8648,0,3.8328,3.8386,3.8444,3.8483,3.8515,3.8585,3.8573,3.8608,3.8588,3.8586,3.8667,3.8683,3.8729,3.8751,3.8734,3.8847,3.8825,3.8787,3.8721,3.8837,3.888,3.8898,3.8657,3.8655,3.8654,3.8652,0,0,3.8527,3.8551,3.8573,3.8588,3.8614,3.8657,3.8724,3.8768,3.8796,3.8826,3.8879,3.895,3.8913,3.8937,3.8921,3.8968,3.9079,3.8923,3.8923,3.8948,3.9199,3.9226,3.9248,3.9057,3.906,3.9063,3.9196,0,3.8668,3.8782,3.8764,3.8874,3.8924,3.8879,3.8936,3.8957,3.8957,3.8999,3.8998,3.9047,3.8997,3.901,3.9055,3.9056,3.9128,3.9046,3.9104,3.9106,3.9096,3.9271,3.9301,3.9425,3.9213,3.9216,3.9218,0,3.8848,3.8882,3.8997,3.901,3.9031,3.9083,3.9119,3.9161,3.9183,3.9179,3.9204,3.9179,3.9242,3.9177,3.9263,3.9208,3.923,3.9234,3.9238,3.9241,3.9168,3.9276,3.9465,3.9483,3.9245,3.9243,3.9241,0,3.8976,3.9051,3.9128,3.9144,3.9163,3.92,3.9209,3.9227,3.9253,3.9285,3.9301,3.9341,3.9362,3.9393,3.9377,3.9332,3.9465,3.9399,3.9461,3.9461,3.949,3.9488,3.9683,3.9509,3.9509,3.9508,3.9508,0,3.9134,3.9205,3.9186,3.9233,3.931,3.9288,3.9365,3.9369,3.9385,3.9431,3.9395,3.9438,3.9417,3.9458,3.9447,3.9517,3.9528,3.9525,3.9521,3.9527,3.9527,3.954,3.953,3.9513,3.9512,3.9511,3.951,0,3.9291,3.9281,3.9361,3.9372,3.9376,3.9432,3.9441,3.9484,3.948,3.9538,3.955,3.9544,3.9591,3.9579,3.9631,3.9622,3.9711,3.9697,3.9703,3.9698,3.976,3.9753,3.9968,3.9993,3.9806,3.9808,3.9809,0,3.9391,3.9444,3.9459,3.9487,3.9499,3.9545,3.957,3.955,3.9578,3.9605,3.9644,3.9687,3.9721,3.9797,3.9796,3.9835,3.982,3.9892,3.9825,3.9828,3.9817,3.9813,3.9816,3.9905,3.9907,3.9909,3.991,0,3.9568,3.956,3.9598,3.9634,3.9665,3.9693,3.9717,3.9742,3.9723,3.9756,3.9803,3.9828,3.9879,3.9922,3.9956,3.9965,3.9934,3.9931,3.9947,3.9953,3.9953,3.995,3.9736,3.9926,3.9925,3.9924,3.9923,3.9922,3.9697,3.974,3.9757,3.98,3.9816,3.9838,3.9878,3.9878,3.9917,3.9956,3.9941,3.9994,4.0011,4.0054,4.0067,4.0107,4.0079,4.0103,4.0108,4.0114,4.012,3.9948,4.0113,4.0113,4.0112,4.0112,4.0112,0,3.9869,3.9877,3.9917,3.995,3.9984,3.9951,3.9976,4.0005,4.0052,4.0071,4.0103,4.0155,4.0195,4.0197,4.0234,4.0266,4.0252,4.0276,4.0272,4.0274,4.0144,4.0125,4.0286,4.0286,4.0286,4.0286,4.0286,4.0286,3.9963,4.0033,4.0026,4.0103,4.011,4.0161,4.0177,4.0197,4.0211,4.027,4.0303,4.0304,4.0315,4.0352,4.0386,4.0386,4.04,4.0429,4.0422,4.0301,4.0283,4.0267,4.0249,4.0433,4.0433,4.0548,4.0549,4.055]}]]